OOV-CUBE (TUBSAT-30)

Last updated on Fri Oct 04 2024 00:03:00 GMT+0000 (Coordinated Universal Time)

1 60240U 24128F 24277.24251048 .00010296 00000+0 89568-3 0 9993 2 60240 61.9976 226.6200 0017605 339.0356 21.0009 14.97315847 12787
UTC large
Height (km)
Speed (km/s)
/
Latitude / Longitude
Inclination (degrees)
Orbital Period (minutes)
Azimuth
Elevation
Range (km)
Doppler Factor

Next 0 passes for location: London (51.5072 / 0.1276)

Sorry there are no passes over London.